User: anonymous   Login
Location: Unspecified
(0.0000°N, 0.0000°E)
Time: 00:02:06
(UTC+00:00)
Language:

STARLINK-6160 - Orbit

View from above orbital plane
View from above orbital plane
View from above satellite
View from above satellite

Ground track
Ground track

The orbit is defined by the following mean orbital elements,

1 56382U          26145.36658573 +.00000000 +00000-0 -41220-4 0 00002
2 56382  43.0016 125.1011 0000674 252.6675 107.4103 15.27563948    07
Epoch (UTC): 25 May 2026 08:47:53
Eccentricity: 0.0000674
inclination: 43.0016°
perigee height: 483 km
apogee height: 484 km
right ascension of ascending node: 125.1011°
argument of perigee: 252.6675°
revolutions per day: 15.27563948
mean anomaly at epoch: 107.4103°

The dashed part of the orbit path shows where the satellite is in the earth's shadow,  

DLR